Regional Weather Roundup
Issued by NWS Albany, NY

Home | Current Version | Previous Version | Text Only | Print | Product List | Glossary On
Versions: 1 2 3 4 5 6 7 8 9 10 11 12 13 14 15 16 17 18 19 20 21 22 23 24 25 26 27 28 29 30 31 32 33 34 35 36 37 38 39 40 41 42 43 44 45 46 47 48 49 50
000
ASUS41 KALY 180510
RWRALY

NEW YORK STATE HOURLY WEATHER ROUNDUP
NATIONAL WEATHER SERVICE ALBANY NY
1200 AM EST SAT NOV 18 2017

NOTE: "FAIR" INDICATES FEW OR NO CLOUDS BELOW 12,000 FEET WITH NO
SIGNIFICANT WEATHER AND/OR NO OBSTRUCTIONS TO VISIBILITY.

NYZ032-033-038>043-046>054-057>066-NYZ062>081-082-084-180600-
EAST


CITY           SKY/WX    TMP DP  RH WIND       PRES   REMARKS
ALBANY         PTCLDY    26  17  68 CALM      30.06F
GLENS FALLS    CLEAR     20  16  84 CALM      30.04F
POUGHKEEPSIE   CLEAR     24  18  77 CALM      30.06S
NEWBURGH       CLEAR     27  21  80 CALM      30.06F
MONTGOMERY     CLOUDY    25  19  78 CALM      30.05S
WHITE PLAINS   CLEAR     29  20  69 NW8       30.03F WCI  21
ISLIP          PTCLDY    31  21  66 W7        30.05F WCI  24
NEW YORK CITY  PTCLDY    41  18  39 W12       30.07S
CENTRAL PARK   CLEAR     38  16  40 VRB5      30.09S WCI  34
$$

NYZ005>009-017-018-044>046-055-056-180600-
CENTRAL


CITY           SKY/WX    TMP DP  RH WIND       PRES   REMARKS
FULTON         PTCLDY    29  21  72 SE3       29.98F
SYRACUSE       CLOUDY    25  21  85 E7        29.99F WCI  17
ROME           CLOUDY    23  20  88 S3        30.04F
ELMIRA         PTCLDY    28  24  85 CALM      29.98F
BINGHAMTON     CLOUDY    25  16  68 SE6       29.96F WCI  18
MONTICELLO     CLOUDY    26  19  74 W6        30.03F WCI  19
$$

NYZ026>034-041>043-087-180600-
NORTH


CITY           SKY/WX    TMP DP  RH WIND       PRES   REMARKS
WATERTOWN      CLOUDY    25  22  88 E3        30.00S
FORT DRUM      NOT AVBL
OGDENSBURG     FAIR      23  21  93 S3        30.00F
MASSENA        PTCLDY    18  16  92 CALM      30.03F
SARANAC LAKE   CLOUDY     8   5  87 CALM      29.94F
PLATTSBURGH    CLEAR     20  13  74 CALM      30.03F
$$

NYZ001>004-010>016-019>021-085-180600-
WEST


CITY           SKY/WX    TMP DP  RH WIND       PRES   REMARKS
NIAGARA FALLS  PTCLDY    33  25  72 E5        29.87F WCI  29
BUFFALO        CLOUDY    34  27  75 SE6       29.88F WCI  29
DUNKIRK        PTCLDY    38  27  64 NW6       29.86F WCI  33
JAMESTOWN      CLOUDY    32  26  78 S10       29.87F WCI  24
WELLSVILLE     CLOUDY    37  18  46 S7        29.92F WCI  32
ROCHESTER      CLOUDY    34  26  72 SE7       29.92F WCI  28
PENN YAN       CLOUDY    35  24  64 SW6       29.94F WCI  30
$$

             KEY
       WCI = WIND CHILL INDEX
       VSB = VISIBILITY
       HX  = HEAT INDEX
$$



USA.gov is the U.S. government's official web portal to all federal, state and local government web resources and services.